Lexington Weather

Lexington, Massachusetts, USA

29°F
4/1/2020 4:38am 
  • Lexington Conditions: Clear
  • Temperature: 29.3°F / -1.5°C 
  • Dew Point: 27.5°FIncreased 0.2°Fsince last hour.
  • Relative Humidity: 93%Increased 1.0% since last hour.
  • Wind: Calm, 10-min avg: Calm, gust: 1 mph
  • Barometer: 29.87 in Steady
  • Visibility: 10 miles
  • Snow Today: 0.0 in
  •   

Regional Weather Roundup
for Boston / Norton, MA

        
000
ASUS41 KBOX 310004
RWRBOX

REGIONAL WEATHER ROUNDUP
NATIONAL WEATHER SERVICE BOSTON/NORTON MA
800 PM EDT MON MAR 30 2020

NOTE:  "FAIR" INDICATES FEW OR NO CLOUDS BELOW 12,000 FEET WITH NO 
SIGNIFICANT WEATHER AND/OR OBSTRUCTIONS TO VISIBILITY.

MAZALL-310100-
EASTERN MASSACHUSETTS
  
CITY           SKY/WX    TMP DP  RH WIND       PRES   REMARKS
BOSTON         LGT RAIN  38  35  89 NE16G25   30.02R WCI  29          
6HR MIN TEMP:  38; 6HR MAX TEMP:  41; 6HR PCP:  0.06;                

BEVERLY        LGT RAIN  38  35  89 NE13G18   30.02R WCI  30          
LAWRENCE       LGT RAIN  37  35  92 NE12      30.05R WCI  29          
BEDFORD        LGT RAIN  39  35  86 NE9       30.01R                  
BLUE HILL        N/A     36  35  96 NE16G26   29.97R WCI  26          
NORWOOD        LGT RAIN  40  36  86 NE10      30.00R FOG              
MARSHFIELD     LGT RAIN  41  41 100 NE15G23   30.00R                  
PLYMOUTH       LGT RAIN  39  37  92 NE13        N/A  WCI  31          
TAUNTON        LGT RAIN  39  36  89 N8        29.97S                  
NEW BEDFORD    CLOUDY    38  37  97 NE9       29.95S WCI  31          
$$

MAZALL-310100-
CAPE COD AND THE ISLANDS
  
CITY           SKY/WX    TMP DP  RH WIND       PRES   REMARKS
FALMOUTH       CLOUDY    39  37  93 NE13G23   29.94F FOG     WCI  32  
HYANNIS        CLOUDY    41  37  86 NE14      29.94F                  
CHATHAM        CLOUDY    39  36  89 NE13G23   29.97R WCI  31          
PROVINCETOWN   LGT RAIN  39  38  96 NE21      29.99R WCI  29          
NANTUCKET      CLOUDY    40  37  89 N17       29.94R WCI  31          
MARTHAS VNYRD  MOCLDY    40  37  89 NE16G28   29.92F WCI  31          
$$
 
MAZALL-310100-
CENTRAL AND WESTERN MASSACHUSETTS
  
CITY           SKY/WX    TMP DP  RH WIND       PRES   REMARKS
WORCESTER      CLOUDY    36  33  89 NE8G17    29.97R WCI  30          
6HR MIN TEMP:  36; 6HR MAX TEMP:  39; 6HR PCP:  0.07;                

FITCHBURG      LGT RAIN  37  33  85 VRB6      30.03R                  
ORANGE         CLOUDY    39  35  86 NE5       30.01R                  
SPRINGFIELD    CLOUDY    40  37  90 E6        30.00R                  
WESTFIELD      CLOUDY    41  37  86 N6        30.00R                  
NORTH ADAMS    CLOUDY    39  34  82 E9        29.98R                  
PITTSFIELD     CLOUDY    38  34  85 E5        29.95R                  
$$
 
RIZALL-310100-
RHODE ISLAND
  
CITY           SKY/WX    TMP DP  RH WIND       PRES   REMARKS
PROVIDENCE     CLOUDY    40  37  89 NE13G20   29.99R                  
6HR MIN TEMP:  40; 6HR MAX TEMP:  46; 6HR PCP:  0.01;                

NEWPORT        CLOUDY    41  35  79 N9        29.97R                  
BLOCK ISLAND   CLOUDY    41  37  86 NE13      29.97R                  
SMITHFIELD     CLOUDY    38  36  92 NE8G18    29.98R                  
WESTERLY       CLOUDY    45  35  68 NE7       29.98R                  
$$
 
CTZALL-310100-
CONNECTICUT
  
CITY           SKY/WX    TMP DP  RH WIND       PRES   REMARKS
BRADLEY INTL   CLOUDY    42  37  82 N10       29.99R                  
6HR MIN TEMP:  42; 6HR MAX TEMP:  45; 6HR PCP:  0.01;                

HARTFORD       CLOUDY    44  38  79 N10       29.99R                  
BRIDGEPORT     CLOUDY    47  39  74 NE7       29.96R                  
DANBURY        CLOUDY    44  38  79 NE8       29.95R                  
GROTON         CLOUDY    42  37  82 NE13      29.97R                  
NEW HAVEN      CLOUDY    47  40  76 NE7       29.96R                  
CHESTER        CLOUDY    43  39  87 CALM      29.96R                  
MERIDEN        CLOUDY    44  38  79 NE5       29.97R                  
WILLIMANTIC    CLOUDY    42  35  76 NE10      29.98R                  
OXFORD         CLOUDY    42  38  85 NE8       29.95R                  
$$

MEZ002-015-021-024-NHZ003-005-008-011-012-014-VTZ005-008-310100-
NORTHERN NEW ENGLAND
  
CITY           SKY/WX    TMP DP  RH WIND       PRES   REMARKS
PORTLAND ME    CLOUDY    36  31  82 NE12      30.07R WCI  28          
6HR MIN TEMP:  36; 6HR MAX TEMP:  39; 6HR PCP:  0.01;                

BANGOR ME      CLOUDY    33  30  88 N9        30.10S WCI  25          
CONCORD NH     LGT RAIN  36  32  85 CALM      30.04R                  
MANCHESTER NH  LGT RAIN  38  35  89 VRB3      30.03R                  
NASHUA NH      LGT RAIN  37  37 100 VRB5      30.05R                  
PORTSMOUTH NH  LGT RAIN  36  34  92 NE9G16    30.04  WCI  29          
JAFFREY NH     LGT RAIN  36  34  92 VRB3      30.00R                  
KEENE NH       LGT RAIN  37  34  89 N5        30.02R                  
BURLINGTON VT  LGT RAIN  40  36  86 SE5       29.98R                  
MT. WASHINGTON NOT AVBL                                               
$$

NYZ052-076-310100-
EASTERN NEW YORK
  
CITY           SKY/WX    TMP DP  RH WIND       PRES   REMARKS
ALBANY         LGT RAIN  46  37  71 S3        29.96R                  
6HR MIN TEMP:  45; 6HR MAX TEMP:  47; 6HR PCP:  0.03;                

NEW YORK CITY  CLOUDY    47  40  76 NE10      29.94R                  
6HR MIN TEMP:  47; 6HR MAX TEMP:  50;                                

$$
 
ANZALL-310100-
MARINE OBSERVATIONS
  
STATION/POSITION TIME  TEMP    WIND        PRES    VSBY  WAVE
                       AIR SEA DIR/SP/G                  HT/PER
                 (UTC) (F)     (DEG/KT/KT) (MB)    (MI)  (FT/S)
BOSTON BUOY      2350   40 43   50/ 19/ 25 1015.2R         9/ 9
BUZZARDS BAY     2300           40/ 21/ 24 1014.1F
NANTUCKET SOUND  2340                        N/A           2/ 4
MASS BAY-STELLWA 2304   39 42   70/ 21/ 25 1013.7R  1 7/8 11/11
ISLE OF SHOALS   2300   37      40/ 27/ 30 1015.4R
S OF BLOCK IS    2330      44                N/A           5/ 8
$$

......................KEY.........................
  SKY/WX - SKY CONDITION/PRESENT WEATHER
  TMP    - TEMPERATURE IN FAHRENHEIT
  DWPT   - DEWPOINT IN FAHRENHEIT
  RH     - RELATIVE HUMIDITY IN PERCENT
  WIND   - DIRECTION AND SPEED IN MPH
  PRES   - MEAN SEA LEVEL PRESSURE IN INCHES OF HG
  WCI    - WIND CHILL INDEX
  VSB    - VISIBILITY IN MILES
  HX     - HEAT INDEX
  TC     - TEMPERATURE IN CELSIUS
  VRB    - VARIABLE WIND DIRECTION
  N/A    - NOT AVAILABLE
  
      

Other recent Regional Weather Roundups

Wed Apr 1, 4:05am

Wed Apr 1, 3:04am

Wed Apr 1, 2:04am

Wed Apr 1, 1:04am

Wed Apr 1, 12:04am

Tue Mar 31, 11:04pm

Tue Mar 31, 10:04pm

Tue Mar 31, 9:04pm

Tue Mar 31, 8:04pm

Tue Mar 31, 7:04pm

Tue Mar 31, 6:04pm

Tue Mar 31, 4:04pm

Tue Mar 31, 3:04pm

Tue Mar 31, 2:04pm

Tue Mar 31, 1:04pm

Tue Mar 31, 12:05pm

Tue Mar 31, 11:04am

Tue Mar 31, 10:05am

Tue Mar 31, 9:04am

Tue Mar 31, 8:04am

Tue Mar 31, 7:05am

Tue Mar 31, 6:04am

Tue Mar 31, 5:04am

Tue Mar 31, 4:04am

Tue Mar 31, 3:04am

Tue Mar 31, 2:04am

Tue Mar 31, 1:04am

Tue Mar 31, 12:04am

Mon Mar 30, 11:04pm

Mon Mar 30, 10:04pm

Mon Mar 30, 9:05pm

Mon Mar 30, 7:04pm

Mon Mar 30, 6:04pm

Mon Mar 30, 5:05pm

Mon Mar 30, 4:04pm

Mon Mar 30, 3:04pm

Mon Mar 30, 2:04pm

Mon Mar 30, 1:04pm

Mon Mar 30, 12:04pm

Mon Mar 30, 11:04am

Mon Mar 30, 10:04am

Mon Mar 30, 9:04am

Mon Mar 30, 8:04am

Mon Mar 30, 7:04am

Mon Mar 30, 6:04am

Mon Mar 30, 5:04am

Mon Mar 30, 4:04am

Mon Mar 30, 3:05am

Mon Mar 30, 2:04am

Mon Mar 30, 1:04am

Mon Mar 30, 12:04am

Sun Mar 29, 11:04pm

Sun Mar 29, 10:05pm

Sun Mar 29, 9:04pm

Sun Mar 29, 8:04pm

Sun Mar 29, 7:04pm

Sun Mar 29, 6:04pm

Sun Mar 29, 5:05pm

Sun Mar 29, 4:04pm

Sun Mar 29, 3:04pm

Sun Mar 29, 2:04pm

Sun Mar 29, 1:05pm

Sun Mar 29, 12:04pm

Sun Mar 29, 11:04am

Sun Mar 29, 10:04am

Sun Mar 29, 9:04am

Sun Mar 29, 8:04am

Sun Mar 29, 7:04am

Sun Mar 29, 6:04am

Sun Mar 29, 5:04am

Meta data:

ID: 3097604f-6afa-465c-81c5-03b3077b3b44
Link: https://api.weather.gov/products/3097604f-6afa-465c-81c5-03b3077b3b44